Date String (YYYY-MM-DD hh:mm:ss) UTC,Instrument flags,Ambient pressure (hPa),Sample flow (lpm),Bypass flow (lpm),Sample temperature (°C),Ambient temperature (°C),ASC tube jacket temperature (°C),LED temperature (°C),Box temperature (°C),Sample RH (%),Span deviation,Mass concentration (μg/m³),Mass concentration (μg/m³),Mass concentration (μg/m³)
DateTimeUTC,F1_M11,P_M11,Q1_M11,Q2_M11,T1_M11,T2_M11,T3_M11,T4_M11,T5_M11,U1_M11,ZSPAN_M11,X0_M11,X2_M11,X1_M11
2022-12-17 23:00:00,,0822.4,4.98,0.00,23.1,21.6,00.0,32.0,25.0,04.7,0000.0,0009.18,0002.92,0001.75
2022-12-17 23:01:00,,0822.4,4.98,0.00,23.1,21.6,00.0,32.0,25.0,04.7,0000.0,0008.83,0002.91,0001.78
2022-12-17 23:02:00,,0822.4,5.04,0.00,23.1,21.7,00.0,32.0,25.0,04.7,0000.0,0008.77,0002.98,0001.83
2022-12-17 23:03:00,,0822.4,4.97,0.00,23.1,21.7,00.0,32.0,25.0,04.8,0000.0,0009.29,0002.95,0001.87
2022-12-17 23:04:00,,0822.4,4.97,0.00,23.1,21.7,00.0,32.0,25.0,04.8,0000.0,0009.53,0002.94,0001.88
2022-12-17 23:05:00,,0822.4,5.06,0.00,23.1,21.7,00.0,32.0,25.0,04.8,0000.0,0009.47,0002.94,0001.91
2022-12-17 23:06:00,,0822.4,4.95,0.00,23.2,21.8,00.0,32.0,25.0,04.8,0000.0,0009.11,0002.96,0001.96
2022-12-17 23:07:00,,0822.4,5.05,0.00,23.2,21.8,00.0,32.0,25.0,04.8,0000.0,0009.00,0003.03,0002.01
2022-12-17 23:08:00,,0822.5,4.95,0.00,23.2,21.9,00.0,32.0,25.0,04.8,0000.0,0008.84,0003.06,0002.06
2022-12-17 23:09:00,,0822.5,5.07,0.00,23.2,21.9,00.0,32.0,25.0,04.8,0000.0,0008.66,0003.05,0002.11
2022-12-17 23:10:00,,0822.4,4.98,0.00,23.2,21.9,00.0,32.0,25.0,04.8,0000.0,0008.53,0003.06,0002.14
2022-12-17 23:11:00,,0822.4,4.98,0.00,23.2,21.9,00.0,32.0,25.0,04.8,0000.0,0008.32,0003.04,0002.14
2022-12-17 23:12:00,,0822.4,5.02,0.00,23.2,21.9,00.0,32.0,25.0,04.7,0000.0,0008.59,0003.07,0002.13
2022-12-17 23:13:00,,0822.4,5.00,0.00,23.2,21.9,00.0,32.0,25.0,04.8,0000.0,0009.62,0003.09,0002.11
2022-12-17 23:14:00,,0822.4,4.97,0.00,23.2,21.8,00.0,32.0,25.0,04.8,0000.0,0009.37,0003.08,0002.10
2022-12-17 23:15:00,,0822.4,5.04,0.00,23.2,21.8,00.0,32.0,25.0,04.8,0000.0,0008.96,0003.11,0002.13
2022-12-17 23:16:00,,0822.4,4.98,0.00,23.2,21.7,00.0,32.0,25.0,04.8,0000.0,0008.91,0003.15,0002.19
2022-12-17 23:17:00,,0822.4,4.97,0.00,23.2,21.7,00.0,32.0,25.0,04.8,0000.0,0009.32,0003.21,0002.20
2022-12-17 23:18:00,,0822.4,5.04,0.00,23.2,21.7,00.0,32.0,25.0,04.8,0000.0,0009.36,0003.21,0002.20
2022-12-17 23:19:00,,0822.4,4.97,0.00,23.2,21.7,00.0,32.0,25.0,04.8,0000.0,0008.78,0003.16,0002.18
2022-12-17 23:20:00,,0822.4,5.04,0.00,23.2,21.7,00.0,32.0,25.0,04.8,0000.0,0009.45,0003.13,0002.14
2022-12-17 23:21:00,,0822.4,4.98,0.00,23.2,21.7,00.0,32.0,25.0,04.9,0000.0,0009.25,0003.10,0002.12
2022-12-17 23:22:00,,0822.5,4.97,0.00,23.2,21.7,00.0,32.0,25.0,04.9,0000.0,0009.83,0003.12,0002.14
2022-12-17 23:23:00,,0822.4,5.04,0.00,23.1,21.7,00.0,32.0,25.0,04.9,0000.0,0009.67,0003.10,0002.15
2022-12-17 23:24:00,,0822.4,4.98,0.00,23.1,21.7,00.0,32.0,25.0,04.9,0000.0,0008.92,0003.10,0002.14
2022-12-17 23:25:00,,0822.4,4.97,0.00,23.1,21.7,00.0,32.0,25.0,04.9,0000.0,0008.91,0003.11,0002.12
2022-12-17 23:26:00,,0822.4,5.03,0.00,23.1,21.7,00.0,32.0,25.0,05.0,0000.0,0008.76,0003.08,0002.09
2022-12-17 23:27:00,,0822.4,4.98,0.00,23.1,21.6,00.0,32.0,25.0,05.0,0000.0,0008.63,0003.03,0002.04
2022-12-17 23:28:00,,0822.4,4.97,0.00,23.1,21.6,00.0,32.0,25.0,05.0,0000.0,0008.16,0002.97,0001.99
2022-12-17 23:29:00,,0822.4,5.04,0.00,23.1,21.6,00.0,32.0,25.0,05.0,0000.0,0008.06,0002.93,0001.97
2022-12-17 23:30:00,,0822.4,4.97,0.00,23.1,21.6,00.0,32.0,25.0,05.0,0000.0,0007.95,0002.89,0001.94
2022-12-17 23:31:00,,0822.4,5.01,0.00,23.1,21.6,00.0,32.0,25.0,05.0,0000.0,0007.89,0002.88,0001.91
2022-12-17 23:32:00,,0822.4,5.01,0.00,23.2,21.6,00.0,32.0,25.0,05.0,0000.0,0008.11,0002.87,0001.89
2022-12-17 23:33:00,,0822.4,4.98,0.00,23.2,21.7,00.0,32.0,25.0,05.1,0000.0,0007.51,0002.84,0001.86
2022-12-17 23:34:00,,0822.4,5.03,0.00,23.2,21.7,00.0,32.0,25.0,05.1,0000.0,0007.63,0002.83,0001.83
2022-12-17 23:35:00,,0822.4,5.00,0.00,23.2,21.7,00.0,32.0,25.0,05.1,0000.0,0007.34,0002.78,0001.81
2022-12-17 23:36:00,,0822.4,4.98,0.00,23.2,21.7,00.0,32.0,25.0,05.1,0000.0,0007.29,0002.74,0001.79
2022-12-17 23:37:00,,0822.4,5.01,0.00,23.2,21.7,00.0,32.0,25.0,05.1,0000.0,0007.05,0002.66,0001.76
2022-12-17 23:38:00,,0822.4,5.01,0.00,23.2,21.7,00.0,32.0,25.0,05.1,0000.0,0007.33,0002.60,0001.73
2022-12-17 23:39:00,,0822.5,4.98,0.00,23.2,21.7,00.0,32.0,25.0,05.1,0000.0,0008.38,0002.51,0001.72
2022-12-17 23:40:00,,0822.5,5.04,0.00,23.2,21.8,00.0,32.0,25.1,05.1,0000.0,0008.75,0002.53,0001.72
2022-12-17 23:41:00,,0822.5,4.98,0.00,23.2,21.8,00.0,32.0,25.0,05.1,0000.0,0008.91,0002.62,0001.71
2022-12-17 23:42:00,,0822.5,4.97,0.00,23.2,21.7,00.0,32.0,25.0,05.1,0000.0,0008.56,0002.72,0001.71
2022-12-17 23:43:00,,0822.5,5.05,0.00,23.2,21.7,00.0,32.0,25.0,05.1,0000.0,0008.71,0002.76,0001.72
2022-12-17 23:44:00,,0822.5,4.98,0.00,23.2,21.7,00.0,32.0,25.0,05.1,0000.0,0008.74,0002.78,0001.74
2022-12-17 23:45:00,,0822.6,4.97,0.00,23.2,21.7,00.0,32.0,25.0,05.0,0000.0,0008.80,0002.81,0001.74
2022-12-17 23:46:00,,0822.6,5.04,0.00,23.2,21.7,00.0,32.0,25.0,05.0,0000.0,0009.94,0002.82,0001.75
2022-12-17 23:47:00,,0822.6,4.97,0.00,23.2,21.7,00.0,32.0,25.0,05.0,0000.0,0011.08,0002.88,0001.76
2022-12-17 23:48:00,,0822.6,5.05,0.00,23.2,21.7,00.0,32.0,25.0,05.0,0000.0,0011.21,0002.93,0001.76
2022-12-17 23:49:00,,0822.6,4.97,0.00,23.2,21.7,00.0,32.0,25.0,05.0,0000.0,0011.15,0002.94,0001.76
2022-12-17 23:50:00,,0822.6,4.99,0.00,23.2,21.8,00.0,32.0,25.0,05.0,0000.0,0010.57,0002.96,0001.77
2022-12-17 23:51:00,,0822.6,5.03,0.00,23.2,21.8,00.0,32.0,25.0,05.0,0000.0,0010.67,0002.98,0001.78
2022-12-17 23:52:00,,0822.6,4.97,0.00,23.2,21.8,00.0,32.0,25.0,05.0,0000.0,0011.41,0003.00,0001.79
2022-12-17 23:53:00,,0822.6,5.04,0.00,23.2,21.8,00.0,32.0,25.0,05.0,0000.0,0011.91,0002.91,0001.79
2022-12-17 23:54:00,,0822.5,4.98,0.00,23.2,21.8,00.0,32.0,25.0,05.0,0000.0,0012.56,0002.86,0001.81
2022-12-17 23:55:00,,0822.5,4.97,0.00,23.2,21.8,00.0,32.0,25.0,05.0,0000.0,0013.14,0002.85,0001.82
2022-12-17 23:56:00,,0822.5,5.04,0.00,23.2,21.8,00.0,32.0,25.0,05.0,0000.0,0013.37,0002.85,0001.84
2022-12-17 23:57:00,,0822.5,4.95,0.00,23.2,21.8,00.0,32.0,25.0,05.0,0000.0,0013.44,0002.89,0001.88
2022-12-17 23:58:00,,0822.5,5.04,0.00,23.2,21.8,00.0,32.0,25.0,05.0,0000.0,0013.00,0002.86,0001.90
2022-12-17 23:59:00,,0822.5,4.97,0.00,23.2,21.8,00.0,32.0,25.0,05.0,0000.0,0013.63,0002.82,0001.93
